This is the latest recevied weather packets stored in our database for station/object IT9CNT. If no packets are shown the sender has not sent any weather packets the latest 1 day(s).
| Time | Temp. | Humidity | Pressure | Rain* | Wind** | Luminosity | Snow |
|---|---|---|---|---|---|---|---|
| 1778021043 | 16.67° C | 74% | 1012.6 hPa | 0 mm | 2.68 m/s, 71° | - | - |
| 1778020983 | 16.67° C | 74% | 1012.6 hPa | 0 mm | 2.68 m/s, 68° | - | - |
| 1778020923 | 16.67° C | 73% | 1012.4 hPa | 0 mm | 2.68 m/s, 68° | - | - |
| 1778020863 | 16.67° C | 73% | 1012.6 hPa | 0 mm | 2.68 m/s, 64° | - | - |
| 1778020819 | 16.67° C | 72% | 1012.4 hPa | 0 mm | 2.68 m/s, 66° | - | - |
| 1778020743 | 16.67° C | 72% | 1012.5 hPa | 0 mm | 2.68 m/s, 61° | - | - |
| 1778020683 | 16.67° C | 72% | 1012.6 hPa | 0 mm | 2.68 m/s, 58° | - | - |
| 1778020623 | 16.67° C | 71% | 1012.7 hPa | 0 mm | 2.68 m/s, 61° | - | - |
| 1778020563 | 16.11° C | 71% | 1012.6 hPa | 0 mm | 2.68 m/s, 64° | - | - |
| 1778020503 | 16.11° C | 71% | 1012.6 hPa | 0 mm | 3.13 m/s, 67° | - | - |
| 1778020443 | 16.67° C | 71% | 1012.6 hPa | 0 mm | 3.13 m/s, 68° | - | - |
| 1778020383 | 16.11° C | 71% | 1012.5 hPa | 0 mm | 3.13 m/s, 72° | - | - |
| 1778020324 | 16.11° C | 71% | 1012.7 hPa | 0 mm | 3.13 m/s, 76° | - | - |
| 1778020264 | 16.11° C | 71% | 1012.6 hPa | 0 mm | 3.58 m/s, 77° | - | - |
| 1778020216 | 16.11° C | 70% | 1012.4 hPa | 0 mm | 3.58 m/s, 80° | - | - |
| 1778020144 | 16.11° C | 70% | 1012.4 hPa | 0 mm | 3.58 m/s, 82° | - | - |
| 1778020083 | 16.11° C | 70% | 1012.5 hPa | 0 mm | 3.58 m/s, 85° | - | - |
| 1778020024 | 16.11° C | 70% | 1012.7 hPa | 0 mm | 3.58 m/s, 86° | - | - |
| 1778019964 | 16.11° C | 70% | 1012.8 hPa | 0 mm | 3.58 m/s, 83° | - | - |
| 1778019903 | 16.11° C | 69% | 1012.5 hPa | 0 mm | 3.13 m/s, 83° | - | - |
| 1778019843 | 16.11° C | 69% | 1012.6 hPa | 0 mm | 3.13 m/s, 83° | - | - |
| 1778019783 | 16.11° C | 69% | 1012.4 hPa | 0 mm | 3.13 m/s, 82° | - | - |
| 1778019724 | 16.11° C | 69% | 1012.4 hPa | 0 mm | 3.13 m/s, 82° | - | - |
| 1778019664 | 16.11° C | 68% | 1012.8 hPa | 0 mm | 3.13 m/s, 84° | - | - |
| 1778019603 | 16.11° C | 68% | 1012.7 hPa | 0 mm | 3.13 m/s, 83° | - | - |
* Rain latest hour (hover to see other rain measurements)
** Current wind speed in m/s (hover to see current wind gust speed)